{"data":{"norad_id":65691,"intl_designator":"2025-212R","name":"STARLINK-34691","alt_names":[],"object_type":"PAYLOAD","status":"ACTIVE","operator":null,"country":"US","launch_date":"2025-09-21","launch_site_code":"AFETR","launch_vehicle":null,"mission":null,"orbit_class":"UNKNOWN","rcs_meters":null,"size_class":null,"mass_kg":null,"dimensions":null,"purposes":["comms"],"wikipedia_slug":null,"has_3d_model":false,"image_url":null,"decayed_at":null,"tle_current":{"epoch":"2026-05-24T22:37:41.763072Z","epoch_age_seconds":90520,"freshness":"FRESH","line1":"1 65691U 25212R   26144.94284448  .00024498  00000+0  83639-3 0  9997","line2":"2 65691  53.1612 341.1112 0000762  58.4439 301.6636 15.30205873 39065","mean_motion":15.30205873,"eccentricity":7.62e-5,"inclination_deg":53.1612,"raan_deg":341.1112,"arg_perigee_deg":58.4439,"mean_anomaly_deg":301.6636,"bstar":0.00083639,"rev_number":3906,"period_min":94.104984525831,"perigee_km":474.67530966455,"apogee_km":475.7197578475,"semimajor_km":6853.334533756,"source":"CELESTRAK","updated_at":"2026-05-25T13:38:20.896853Z"}}}